ISOUTHCR7 Weather Reports


Display with metric or nautical units.
time (UTC)temp
F
wind
direction
speed
MPH
gust
MPH
rain 1hr
in
rain 24hr
in
rain mn
in
humidity
%
barometer
mb
20260506104411 52 350 4.0 13.0 0.00 0.03 0.03 82 1012.7
20260506103346 52 316 5.0 13.0 0.00 0.03 0.03 82 1012.7
20260506102312 52 59 5.0 12.0 0.00 0.03 0.03 82 1012.6
20260506100202 51 5 6.0 15.0 0.00 0.03 0.03 81 1012.6
20260506095215 51 29 6.0 15.0 0.00 0.03 0.03 81 1012.6
20260506093027 52 24 6.0 16.0 0.00 0.03 0.03 80 1012.6
20260506091958 51 11 7.0 16.0 0.00 0.03 0.03 81 1012.5
20260506091016 51 17 7.0 16.0 0.00 0.03 0.03 81 1012.5
20260506084809 51 22 6.0 16.0 0.00 0.03 0.03 84 1012.4
20260506083813 51 14 7.0 19.0 0.00 0.03 0.03 84 1012.3
20260506082743 50 5 9.0 19.0 0.00 0.03 0.03 83 1012.3
20260506080700 50 17 7.0 16.0 0.00 0.03 0.03 85 1012.3
20260506072538 49 9 5.0 18.0 0.00 0.03 0.03 86 1011.9
20260506071550 48 40 7.0 18.0 0.00 0.03 0.03 87 1011.9
20260506070535 49 49 6.0 14.0 0.00 0.03 0.03 87 1011.9
20260506061615 47 35 1.0 8.0 0.05 0.03 0.03 86 1011.5
20260506060636 48 35 2.0 8.0 0.17 0.02 0.02 85 1011.4
20260506051338 48 350 2.0 8.0 0.00 0.00 0.00 86 1011.4
20260506050305 48 15 3.0 8.0 0.00 0.00 0.00 86 1011.5
20260506044238 47 355 1.0 4.0 0.00 0.00 0.00 86 1011.4
20260506043206 47 301 1.0 8.0 0.00 0.00 0.00 86 1011.4
20260506042154 47 304 2.0 8.0 0.00 0.00 0.00 86 1011.4
20260506041126 47 313 3.0 8.0 0.00 0.00 0.00 86 1011.4
20260506040119 47 351 2.0 8.0 0.00 0.00 0.00 86 1011.5
20260506035116 47 339 3.0 8.0 0.00 0.00 0.00 86 1011.5
20260506032948 48 351 3.0 10.0 0.00 0.00 0.00 86 1011.5
20260506031943 47 12 0.0 4.0 0.00 0.00 0.00 86 1011.6
20260506030932 47 301 0.0 2.0 0.00 0.00 0.00 86 1011.7
20260506025953 47 0 1.0 3.0 0.00 0.00 0.00 86 1011.8
20260506024925 47 26 1.0 4.0 0.00 0.00 0.00 86 1011.8
20260506023904 46 34 1.0 4.0 0.00 0.00 0.00 86 1011.9
20260506021734 46 26 0.0 3.0 0.00 0.00 0.00 86 1011.9
20260506015558 46 321 1.0 3.0 0.00 0.00 0.00 85 1012.1
20260506014542 46 320 0.0 4.0 0.00 0.00 0.00 85 1012.0
20260506013516 46 5 1.0 6.0 0.00 0.00 0.00 85 1012.1
20260506012525 47 334 1.0 6.0 0.00 0.00 0.00 85 1012.1
20260506011511 47 296 2.0 6.0 0.00 0.00 0.00 85 1012.2
20260506005309 47 344 2.0 7.0 0.00 0.00 0.00 84 1012.2
20260506004239 47 333 2.0 10.0 0.00 0.00 0.00 84 1012.3
20260506002128 48 342 3.0 10.0 0.00 0.00 0.00 84 1012.4
20260506001143 48 40 3.0 10.0 0.00 0.00 0.00 83 1012.5
20260506000131 48 18 3.0 10.0 0.00 0.00 0.00 83 1012.6
20260505235105 48 5 3.0 8.0 0.00 0.00 0.00 83 1012.6
20260505234058 48 49 2.0 9.0 0.00 0.00 0.00 82 1012.7
20260505233117 49 27 3.0 9.0 0.00 0.00 0.00 81 1012.8
20260505232110 49 9 1.0 9.0 0.00 0.00 0.00 81 1012.8
20260505231044 49 5 2.0 9.0 0.00 0.00 0.00 81 1012.9
20260505230025 49 298 2.0 9.0 0.00 0.00 0.00 81 1013.0
20260505225008 49 35 3.0 9.0 0.00 0.00 0.00 80 1013.0
20260505223950 49 339 2.0 7.0 0.00 0.00 0.00 81 1013.1
20260505222920 49 355 3.0 11.0 0.00 0.00 0.00 80 1013.2
20260505221913 49 5 4.0 11.0 0.00 0.00 0.00 80 1013.1
20260505220905 50 345 3.0 13.0 0.00 0.00 0.00 81 1013.2
20260505215842 50 0 4.0 13.0 0.00 0.00 0.00 81 1013.3
20260505214836 50 31 3.0 10.0 0.00 0.00 0.00 81 1013.3
20260505213845 50 11 3.0 10.0 0.00 0.00 0.00 81 1013.3
20260505212903 50 69 4.0 12.0 0.00 0.00 0.00 81 1013.2
20260505211840 50 47 5.0 12.0 0.00 0.00 0.00 81 1013.3
20260505210807 50 67 4.0 12.0 0.00 0.00 0.00 82 1013.3
20260505205829 50 57 5.0 13.0 0.00 0.00 0.00 82 1013.2
20260505203650 51 41 5.0 13.0 0.00 0.00 0.00 83 1013.2
20260505202701 51 55 6.0 13.0 0.00 0.00 0.00 83 1013.1
20260505201705 51 24 4.0 11.0 0.00 0.00 0.00 83 1013.1
20260505200631 51 20 4.0 12.0 0.00 0.00 0.00 83 1013.1
20260505195607 51 38 5.0 12.0 0.00 0.00 0.00 83 1013.0
20260505194537 51 48 5.0 11.0 0.00 0.00 0.00 82 1012.8
20260505193522 51 22 6.0 15.0 0.00 0.00 0.00 82 1012.8
20260505192506 51 47 4.0 15.0 0.00 0.00 0.00 83 1012.7
20260505191433 51 28 4.0 12.0 0.00 0.00 0.00 83 1012.6
20260505185310 51 25 5.0 12.0 0.00 0.00 0.00 82 1012.4
20260505183146 52 38 5.0 12.0 0.00 0.00 0.00 81 1012.5
20260505182142 52 38 5.0 12.0 0.00 0.00 0.00 81 1012.4
20260505181201 52 36 5.0 12.0 0.00 0.00 0.00 80 1012.4
20260505180147 53 39 5.0 11.0 0.00 0.00 0.00 79 1012.5
20260505175152 53 5 6.0 13.0 0.00 0.00 0.00 78 1012.5
20260505174151 54 333 6.0 16.0 0.00 0.00 0.00 78 1012.4
20260505172018 55 44 6.0 13.0 0.00 0.00 0.00 75 1012.4
20260505171014 55 36 6.0 13.0 0.00 0.00 0.00 74 1012.4
20260505170000 55 15 6.0 13.0 0.00 0.00 0.00 74 1012.4
20260505165021 55 30 5.0 11.0 0.00 0.00 0.00 73 1012.4
20260505164012 56 336 6.0 14.0 0.00 0.00 0.00 73 1012.3
20260505163028 56 355 6.0 14.0 0.00 0.00 0.00 72 1012.2
20260505162026 56 350 7.0 14.0 0.00 0.00 0.00 72 1012.2
20260505160953 57 42 7.0 14.0 0.00 0.00 0.00 72 1012.2
20260505152954 58 36 6.0 13.0 0.00 0.00 0.00 70 1012.3
20260505151944 58 9 6.0 13.0 0.00 0.00 0.00 70 1012.3
20260505140654 61 37 5.0 14.0 0.00 0.00 0.00 68 1012.4
20260505123459 63 26 4.0 12.0 0.00 0.00 0.00 66 1012.2
20260505122454 63 350 5.0 12.0 0.00 0.00 0.00 64 1012.3
20260505121426 64 316 4.0 12.0 0.00 0.00 0.00 67 1012.2
20260505120450 63 309 5.0 12.0 0.00 0.00 0.00 70 1012.2
20260505115456 62 10 4.0 12.0 0.00 0.00 0.00 71 1012.2
20260505114423 61 11 4.0 12.0 0.00 0.00 0.00 71 1012.2
20260505112347 62 336 4.0 11.0 0.00 0.00 0.00 70 1012.3
20260505111345 62 24 3.0 11.0 0.00 0.00 0.00 69 1012.3